Knob Noster, MO

3:40 AM CDT on August 27, 2016 (GMT -0500)
Whiteman Air Force Base

Weather History for KSZL - November, 2013

Change the Weather History Date:

Wednesday, November 6, 2013

  Actual Average Record
Temperature  
Mean Temperature 47 °F -  
Max Temperature 60 °F 54 °F 80 °F (1999)
Min Temperature 34 °F 38 °F 25 °F (2010)
Degree Days  
Heating Degree Days 18    
Moisture  
Dew Point 40 °F    
Average Humidity 85    
Maximum Humidity 94    
Minimum Humidity 69    
Precipitation  
Precipitation 0.90 in - - ()
Sea Level Pressure  
Sea Level Pressure 30.13 in    
Wind  
Wind Speed 13 mph (WNW)    
Max Wind Speed 17 mph    
Max Gust Speed 30 mph    
Visibility 9 miles    
Events Rain , Thunderstorm    
Averages and records for this station are not official NWS values.
T = Trace of Precipitation, MM = Missing Value Source: NWS Daily Summary

Daily Weather History Graph

Daily Weather History Graph

Search for Another Location

Airport or City:

Trip Planner

Search our weather history database for the weather conditions in past years. The results will help you decide how hot, cold, wet, or windy it might be!

Date:

Astronomy

Nov. 06, 2013 Rise Set
Actual Time 6:46 AM CST 5:08 PM CST
Civil Twilight 6:18 AM CST 5:36 PM CST
Nautical Twilight 5:47 AM CST 6:07 PM CST
Astronomical Twilight 5:16 AM CST 6:38 PM CST
Moon 10:01 AM CST (11/6) 8:14 PM CST (11/6)
Length of Visible Light 11h 17m
Length of Day
10h 21m
Waxing Crescent, 14% of the Moon is Illuminated
Nov 6
Waxing Crescent
Nov 9
First Quarter
Nov 17
Full
Nov 25
Last Quarter
Dec 2
New

Hourly Weather History & Observations

Time (CST) Temp. Windchill Dew Point Humidity Pressure Visibility Wind Dir Wind Speed Gust Speed Precip Events Conditions
12:08 AM 60.8 °F - 59.0 °F 94% 29.85 in 8.0 mi South 16.1 mph - N/A Rain Light Rain
12:14 AM 60.8 °F - 59.0 °F 94% 29.85 in 4.0 mi South 15.0 mph - N/A Rain Heavy Rain
12:45 AM 59.0 °F - 57.2 °F 94% 29.89 in 1.2 mi WSW 15.0 mph 29.9 mph N/A Rain , Thunderstorm Heavy Rain
12:55 AM 58.3 °F - 56.5 °F 94% 29.89 in 6.0 mi SW 10.4 mph - 0.84 in Rain Rain
1:31 AM 57.2 °F - 55.4 °F 94% 29.90 in 10.0 mi WSW 8.1 mph - N/A Rain Light Rain
1:55 AM 58.1 °F - 56.5 °F 94% 29.89 in 6.0 mi West 10.4 mph - 0.04 in Rain Light Rain
2:13 AM 53.6 °F - 51.8 °F 94% 29.90 in 6.0 mi NW 15.0 mph - N/A Rain Light Rain
2:55 AM 46.6 °F - 44.4 °F 92% 29.95 in 6.0 mi NW 12.7 mph - 0.00 in Rain Light Rain
3:55 AM 43.5 °F 37.1 °F 41.0 °F 91% 29.99 in 10.0 mi NW 12.7 mph - 0.02 in   Overcast
4:55 AM 41.0 °F 33.9 °F 39.2 °F 93% 30.01 in 10.0 mi NW 12.7 mph 20.7 mph N/A Rain Light Rain
5:12 AM 41.0 °F 32.8 °F 39.2 °F 93% 30.00 in 10.0 mi NNW 16.1 mph - N/A   Mostly Cloudy
5:55 AM 40.1 °F 31.3 °F 38.5 °F 94% 30.06 in 10.0 mi NW 17.3 mph 24.2 mph 0.00 in   Overcast
6:55 AM 39.9 °F 32.5 °F 37.4 °F 91% 30.08 in 10.0 mi WNW 12.7 mph - N/A   Overcast
7:37 AM 39.2 °F 30.8 °F 37.4 °F 93% 30.09 in 10.0 mi NW 15.0 mph - N/A   Overcast
7:58 AM 39.6 °F 30.6 °F 36.0 °F 87% 30.13 in 10.0 mi NW 17.3 mph - N/A   Overcast
8:58 AM 39.2 °F 30.5 °F 35.2 °F 86% 30.14 in 10.0 mi NNW 16.1 mph - N/A   Overcast
9:38 AM 39.2 °F 31.6 °F 35.6 °F 87% 30.16 in 10.0 mi NW 12.7 mph - N/A   Overcast
9:58 AM 40.5 °F 31.8 °F 35.4 °F 82% 30.18 in 10.0 mi NW 17.3 mph 21.9 mph N/A   Overcast
10:23 AM 41.0 °F 32.5 °F 35.6 °F 81% 30.17 in 10.0 mi WNW 17.3 mph - N/A   Overcast
10:38 AM 41.0 °F 33.9 °F 35.6 °F 81% 30.17 in 10.0 mi NW 12.7 mph - N/A   Overcast
10:43 AM 41.0 °F 33.5 °F 35.6 °F 81% 30.18 in 10.0 mi NW 13.8 mph - N/A   Overcast
10:53 AM 41.0 °F 33.9 °F 35.6 °F 81% 30.18 in 10.0 mi NW 12.7 mph 21.9 mph N/A   Overcast
10:58 AM 41.2 °F 33.0 °F 35.8 °F 81% 30.19 in 10.0 mi NW 16.1 mph 21.9 mph N/A   Overcast
11:58 AM 41.4 °F 34.7 °F 35.1 °F 78% 30.20 in 10.0 mi NNW 11.5 mph - N/A   Overcast
12:58 PM 42.1 °F 35.2 °F 35.4 °F 77% 30.20 in 10.0 mi NW 12.7 mph - N/A   Overcast
1:58 PM 43.3 °F 37.2 °F 35.1 °F 73% 30.23 in 10.0 mi NW 11.5 mph - N/A   Overcast
2:58 PM 43.7 °F 36.6 °F 34.9 °F 71% 30.25 in 10.0 mi NW 15.0 mph - N/A   Overcast
3:58 PM 44.1 °F 38.6 °F 34.5 °F 69% 30.26 in 10.0 mi NW 10.4 mph - N/A   Mostly Cloudy
4:23 PM 42.8 °F 37.0 °F 33.8 °F 70% 30.25 in 10.0 mi NW 10.4 mph - N/A   Mostly Cloudy
4:58 PM 43.0 °F 38.8 °F 34.0 °F 71% 30.27 in 10.0 mi WNW 6.9 mph - N/A   Mostly Cloudy
5:58 PM 40.6 °F 37.5 °F 33.4 °F 75% 30.29 in 10.0 mi WNW 4.6 mph - N/A   Partly Cloudy
6:58 PM 39.0 °F 35.7 °F 33.4 °F 80% 30.31 in 10.0 mi SW 4.6 mph - N/A   Clear
7:58 PM 37.0 °F 33.3 °F 32.9 °F 85% 30.32 in 10.0 mi SW 4.6 mph - N/A   Scattered Clouds
8:58 PM 35.6 °F - 32.4 °F 88% 30.33 in 10.0 mi WSW 2.3 mph - N/A   Partly Cloudy
9:58 PM 34.3 °F 31.4 °F 31.3 °F 89% 30.35 in 10.0 mi WSW 3.5 mph - N/A   Partly Cloudy
10:58 PM 34.2 °F 29.0 °F 30.9 °F 88% 30.35 in 10.0 mi WSW 5.8 mph - N/A   Clear
11:58 PM 34.3 °F 29.2 °F 31.5 °F 89% 30.36 in 10.0 mi WSW 5.8 mph - N/A   Clear